FW9465 Weather Reports


Display with metric or nautical units.
time (UTC)temp
F
wind
direction
speed
MPH
gust
MPH
rain 1hr
in
rain 24hr
in
rain mn
in
humidity
%
barometer
mb
20260903041339 85 140 6.0 10.0 0.00 0.00 0.00 62 1013.1
20260903040355 85 139 4.0 6.0 0.00 0.00 0.00 60 1013.2
20260903034437 86 107 3.0 7.0 0.00 0.00 0.00 58 1013.1
20260903033536 86 138 4.0 6.0 0.00 0.00 0.00 58 1013.3
20260903032556 87 104 2.0 4.0 0.00 0.00 0.00 57 1013.1
20260903031638 87 134 5.0 11.0 0.00 0.00 0.00 58 1013.1
20260903030638 87 146 8.0 13.0 0.00 0.00 0.00 57 1013.0
20260903024738 88 145 7.0 11.0 0.00 0.00 0.00 55 1012.8
20260903023738 88 136 6.0 8.0 0.00 0.00 0.00 53 1012.6
20260903021738 89 142 5.0 9.0 0.00 0.00 0.00 51 1012.3
20260903020737 90 132 5.0 11.0 0.00 0.00 0.00 50 1012.2
20260903015737 90 142 6.0 12.0 0.00 0.00 0.00 47 1012.0
20260903014738 91 107 5.0 9.0 0.00 0.00 0.00 47 1012.0
20260903012738 92 97 7.0 12.0 0.00 0.00 0.00 47 1011.6
20260903011738 92 94 7.0 9.0 0.00 0.00 0.00 46 1011.5
20260903010755 93 87 11.0 15.0 0.00 0.00 0.00 43 1011.4
20260903005738 94 90 5.0 8.0 0.00 0.00 0.00 41 1011.2
20260903004836 95 85 3.0 5.0 0.00 0.00 0.00 40 1011.2
20260903003838 95 105 3.0 4.0 0.00 0.00 0.00 39 1011.2
20260903002841 95 87 4.0 6.0 0.00 0.00 0.00 39 1011.2
20260903001839 96 97 5.0 9.0 0.00 0.00 0.00 39 1011.2
20260903000837 96 80 9.0 10.0 0.00 0.00 0.00 39 1011.1
20260902235839 96 90 5.0 8.0 0.00 0.00 0.00 38 1011.0
20260902234837 96 69 6.0 10.0 0.00 0.00 0.00 39 1011.2
20260902233836 96 92 7.0 11.0 0.00 0.00 0.00 38 1011.2
20260902232854 97 70 4.0 7.0 0.00 0.00 0.00 37 1011.2
20260902231839 97 61 8.0 11.0 0.00 0.00 0.00 38 1011.0
20260902224938 97 39 5.0 9.0 0.00 0.00 0.00 39 1011.1
20260902223036 97 54 5.0 7.0 0.00 0.00 0.00 39 1011.0
20260902221054 97 88 9.0 13.0 0.00 0.00 0.00 39 1011.2
20260902220153 97 64 5.0 7.0 0.00 0.00 0.00 38 1011.4
20260902215236 97 32 3.0 4.0 0.00 0.00 0.00 37 1011.5
20260902214236 97 43 9.0 12.0 0.00 0.00 0.00 38 1011.5
20260902213254 97 34 7.0 9.0 0.00 0.00 0.00 38 1011.5
20260902210337 97 47 6.0 9.0 0.00 0.00 0.00 39 1011.9
20260902205339 97 64 9.0 13.0 0.00 0.00 0.00 37 1011.9
20260902203439 96 69 9.0 12.0 0.00 0.00 0.00 38 1012.2
20260902202453 96 61 7.0 10.0 0.00 0.00 0.00 40 1012.3
20260902201539 96 129 3.0 9.0 0.00 0.00 0.00 39 1012.4
20260902200636 96 18 7.0 11.0 0.00 0.00 0.00 39 1012.5
20260902195637 96 67 4.0 6.0 0.00 0.00 0.00 40 1012.6
20260902194637 96 63 3.0 5.0 0.00 0.00 0.00 40 1012.8
20260902193637 95 38 6.0 9.0 0.00 0.00 0.00 41 1013.1
20260902192735 95 88 8.0 13.0 0.00 0.00 0.00 40 1013.2
20260902191754 95 97 2.0 4.0 0.00 0.00 0.00 41 1013.5
20260902190738 95 34 11.0 14.0 0.00 0.00 0.00 42 1013.5
20260902185755 95 64 7.0 11.0 0.00 0.00 0.00 41 1013.7
20260902184838 95 346 6.0 9.0 0.00 0.00 0.00 41 1013.8
20260902183838 95 346 3.0 7.0 0.00 0.00 0.00 41 1014.1
20260902182837 95 37 5.0 8.0 0.00 0.00 0.00 41 1014.2
20260902181936 95 66 7.0 9.0 0.00 0.00 0.00 41 1014.4
20260902180036 95 63 5.0 8.0 0.00 0.00 0.00 41 1014.6
20260902175037 95 89 2.0 5.0 0.00 0.00 0.00 42 1014.8
20260902174036 94 97 5.0 9.0 0.00 0.00 0.00 42 1015.1
20260902173038 93 281 1.0 4.0 0.00 0.00 0.00 44 1015.2
20260902172038 93 33 8.0 9.0 0.00 0.00 0.00 44 1015.4
20260902171137 94 58 4.0 5.0 0.00 0.00 0.00 44 1015.4
20260902170138 94 15 0.0 3.0 0.00 0.00 0.00 44 1015.5
20260902165136 93 130 2.0 4.0 0.00 0.00 0.00 43 1015.7
20260902164153 93 35 4.0 6.0 0.00 0.00 0.00 44 1015.8
20260902163153 93 35 2.0 5.0 0.00 0.00 0.00 46 1015.7
20260902161239 93 133 1.0 6.0 0.00 0.00 0.00 45 1015.8
20260902160337 91 115 2.0 4.0 0.00 0.00 0.00 49 1016.0
20260902154435 90 93 1.0 3.0 0.00 0.00 0.00 51 1015.8
20260902153437 89 112 0.0 0.0 0.00 0.00 0.00 52 1016.0
20260902152436 89 67 4.0 4.0 0.00 0.00 0.00 54 1015.9
20260902151453 88 90 4.0 5.0 0.00 0.00 0.00 55 1015.8
20260902150552 89 80 2.0 5.0 0.00 0.00 0.00 55 1016.0
20260902145538 88 132 1.0 4.0 0.00 0.00 0.00 56 1016.0
20260902143537 85 118 3.0 7.0 0.00 0.00 0.00 60 1016.0
20260902142537 85 98 4.0 8.0 0.00 0.00 0.00 62 1016.1
20260902141635 84 138 5.0 7.0 0.00 0.00 0.00 62 1016.1
20260902135635 83 67 3.0 4.0 0.00 0.00 0.00 65 1016.1
20260902133638 82 45 2.0 4.0 0.00 0.00 0.00 69 1015.9
20260902131637 80 45 0.0 0.0 0.00 0.00 0.00 71 1015.8
20260902125638 78 90 0.0 0.0 0.00 0.00 0.00 76 1015.6
20260902124636 76 90 0.0 0.0 0.00 0.00 0.00 78 1015.6
20260902123637 76 90 0.0 0.0 0.00 0.00 0.00 80 1015.5
20260902122737 75 90 0.0 0.0 0.00 0.00 0.00 80 1015.5
20260902121736 75 90 0.0 0.0 0.00 0.00 0.00 80 1015.4
20260902120737 75 90 0.0 0.0 0.00 0.00 0.00 80 1015.3
20260902114737 76 90 0.0 0.0 0.00 0.00 0.00 78 1015.4
20260902112735 75 112 2.0 2.0 0.00 0.00 0.00 79 1015.5
20260902111737 76 157 0.0 0.0 0.00 0.00 0.00 78 1015.4
20260902110737 76 157 0.0 0.0 0.00 0.00 0.00 78 1015.4
20260902105737 76 157 0.0 0.0 0.00 0.00 0.00 78 1015.3
20260902104737 76 157 0.0 0.0 0.00 0.00 0.00 77 1015.4
20260902103737 77 157 0.0 0.0 0.00 0.00 0.00 76 1015.2
20260902101839 77 157 0.0 0.0 0.00 0.00 0.00 75 1015.1
20260902100838 77 157 0.0 0.0 0.00 0.00 0.00 75 1015.2
20260902095837 77 157 0.0 1.0 0.00 0.00 0.00 75 1015.2
20260902093937 78 157 0.0 0.0 0.00 0.00 0.00 73 1015.1
20260902093034 78 157 0.0 0.0 0.00 0.00 0.00 72 1015.0
20260902092036 79 157 0.0 0.0 0.00 0.00 0.00 72 1015.2
20260902091135 79 157 0.0 1.0 0.00 0.00 0.00 71 1015.3
20260902090152 79 157 0.0 1.0 0.00 0.00 0.00 71 1015.3
20260902085136 79 157 1.0 2.0 0.00 0.00 0.00 71 1015.3
20260902084136 79 157 1.0 3.0 0.00 0.00 0.00 70 1015.3
20260902082136 80 157 2.0 3.0 0.00 0.00 0.00 70 1015.3
20260902081136 80 157 2.0 4.0 0.00 0.00 0.00 69 1015.3
20260902080136 80 157 2.0 3.0 0.00 0.00 0.00 67 1015.3
20260902074235 81 157 2.0 2.0 0.00 0.00 0.00 67 1015.5
20260902073237 81 157 2.0 4.0 0.00 0.00 0.00 65 1015.4
20260902072237 82 157 4.0 5.0 0.00 0.00 0.00 65 1015.5
20260902071237 82 157 2.0 4.0 0.00 0.00 0.00 65 1015.5
20260902070236 83 151 4.0 6.0 0.00 0.00 0.00 64 1015.5
20260902065238 83 158 6.0 9.0 0.00 0.00 0.00 63 1015.5
20260902063237 83 160 7.0 10.0 0.00 0.00 0.00 62 1015.4
20260902062237 84 160 5.0 7.0 0.00 0.00 0.00 62 1015.4
20260902060238 84 160 8.0 11.0 0.00 0.00 0.00 61 1015.2
20260902055336 84 156 7.0 10.0 0.00 0.00 0.00 60 1015.1
20260902053436 85 154 7.0 8.0 0.00 0.00 0.00 59 1014.8
20260902052437 85 152 8.0 11.0 0.00 0.00 0.00 58 1014.8
20260902050534 86 145 7.0 12.0 0.00 0.00 0.00 57 1014.6
20260902045539 86 147 4.0 7.0 0.00 0.00 0.00 56 1014.8
20260902044623 86 131 4.0 7.0 0.00 0.00 0.00 56 1014.7
20260902042623 87 135 4.0 5.0 0.00 0.00 0.00 55 1014.6